Weather Roundup
Issued by NWS Chicago, IL

Home | Current Version | Previous Version | Graphics & Text | Print | Product List | Glossary On
Versions: 1 2 3 4 5 6 7 8 9 10 11 12 13 14 15 16 17 18 19 20 21 22 23 24 25 26 27 28 29 30 31 32 33 34 35 36 37 38 39 40 41 42 43 44 45 46 47 48 49 50
000
NZUS59 KLOT 172008
HRRLOT

CHICAGO AREA WEATHER ROUNDUP
NATIONAL WEATHER SERVICE CHICAGO/ROMEOVILLE IL
200 PM CST SAT FEB 17 2018

NOTE: "FAIR" INDICATES FEW OR NO CLOUDS BELOW 12,000 FEET WITH NO
SIGNIFICANT WEATHER AND/OR OBSTRUCTIONS TO VISIBILITY.

* THESE STATIONS ARE NOT UNDER NWS QUALITY CONTROL. THEY ALSO MAY NOT
  REPORT WEATHER SUCH AS PRECIPITATION OR FOG.

ILZ005-006-012>014-019>023-172100-
NORTHEAST ILLINOIS

CITY           SKY/WX    TMP DP  RH WIND       PRES   REMARKS
OHARE          CLOUDY    35  26  69 S9        29.92F WCI  28
MIDWAY         CLOUDY    35  27  72 S12       29.94F WCI  27
AURORA         CLOUDY    34  28  79 S17G23    29.91F WCI  23
LANSING*       CLOUDY    34  29  83 SW8       29.96F WCI  27
JOLIET*        CLOUDY    36  30  78 S13       29.93F
WAUKEGAN       CLOUDY    34  23  64 S9        29.92F WCI  27
DUPAGE AIRPORT CLOUDY    33  28  81 S12       29.89F WCI  24
WHEELING       CLOUDY    35  25  66 S7        29.93F WCI  29
KANKAKEE*      LGT SNOW  32  30  91 SW8       29.97R VSB 3/4 WCI  25
MORRIS*        LGT SNOW  32  31  94 S12       29.94F VSB 1   WCI  23
LEWIS AIRPORT* CLOUDY    33  28  83 S15       29.92F WCI  23
NORTHERLY ISL    N/A     35  25  67 S9          N/A  WCI  28
$$

WIZ051-052-058>065-066-070>072-172100-
SOUTHEAST WISCONSIN

CITY           SKY/WX    TMP DP  RH WIND       PRES   REMARKS
MILWAUKEE      CLOUDY    33  19  56 S8        29.91F WCI  26
KENOSHA*       CLOUDY    34  23  64 S9        29.91F WCI  27
RACINE*        CLOUDY    33  22  63 S8        29.94F WCI  26
BURLINGTON       N/A     31  23  70 S8        29.91F WCI  24
WAUKESHA       CLOUDY    28  19  69 CALM      29.90F
WEST BEND      LGT SNOW  30  21  69 W10       29.90F WCI  21
$$

INZ001>003-010>013-019-020-172100-
NORTHWEST INDIANA

CITY           SKY/WX    TMP DP  RH WIND       PRES   REMARKS
GARY*          CLOUDY    36  27  69 SW5       29.96F
MICHIGAN CITY* NOT AVBL
RENSSELAER*    NOT AVBL
VALPARAISO     CLOUDY    35  27  72 S8        29.96F WCI  29
$$

LMZ740>746-172100-
SOUTHERN LAKE MICHIGAN

STATION/POSITION TIME  SKY/WX   TEMP WIND        PRES    VSBY
                                AIR  DIR/SP/G
                 (UTC)          (F)  (DEG/KT/KT) (MB)    (MI)
HARRISON CRIB    1940            34  190/ 11/ 12   N/A
BURNHAM HARBOR   2000            35  240/  7/ 12   N/A
CALUMET HARBOR   1942            34  160/  8/ 10 1013.6F
BURNS HARBOR     1940            34  200/  9/ 14 1014.9F
MICHIGAN CITY    1940            33  170/  8/ 10   N/A
$$

ABBREVIATIONS USED IN REMARKS
   TC - TEMPERATURE IN CELSIUS
  WCI - WIND CHILL INDEX
   HX - HEAT INDEX
  VSB - VISIBILITY
$$



USA.gov is the U.S. government's official web portal to all federal, state and local government web resources and services.